User: anonymous   Login
Location: Unspecified
(0.0000°N, 0.0000°E)
Time: 09:22:19
(UTC+00:00)
Language:

NTS 1 - Orbit

View from above orbital plane
View from above orbital plane
View from above satellite
View from above satellite

Ground track
Ground track

The orbit data is extracted from the following two-line orbital elements,

1 07369U 74054A   17327.77743465  .00000046  00000-0  00000+0 0  9997
2 07369 124.9728 270.9358 0076111 251.0389 276.6870  3.07214356486609
Epoch (UTC): 23 November 2017 18:39:30
Eccentricity: 0.0076111
inclination: 124.9728°
perigee height: 13458 km
apogee height: 13762 km
right ascension of ascending node: 270.9358°
argument of perigee: 251.0389°
revolutions per day: 3.07214356
mean anomaly at epoch: 276.6870°
orbit number at epoch: 48660

The dashed part of the orbit path shows where the satellite is in the earth's shadow,  

DLR